Regional Weather Roundup
Issued by NWS

Home | Current Version | Previous Version | Graphics & Text | Print | Product List | Glossary On
Versions: 1 2 3 4 5 6 7 8 9 10 11 12 13 14 15 16 17 18 19 20 21 22 23 24 25 26 27 28 29 30 31 32 33 34 35 36 37 38 39 40 41 42 43 44 45 46 47 48 49 50
993
ASUS44 KLIX 301701
RWRLA
LOUISIANA WEATHER ROUNDUP
NATIONAL WEATHER SERVICE NEW ORLEANS LA
1200 PM CDT TUE SEP 30 2014

NOTE: "FAIR" INDICATES FEW OR NO CLOUDS BELOW 12,000 FEET WITH NO
      SIGNIFICANT WEATHER AND/OR OBSTRUCTIONS TO VISIBILITY.
      SKY/WX - SKY CONDITION AND SIGNIFICANT WEATHER.
      TMP - AIR TEMPERATURE.    DP   - DEWPOINT TEMPERATURE.
      RH  - RELATIVE HUMIDITY.  PRES - PRESSURE.
      HX  - HEAT INDEX.         WCI  - WIND CHILL INDEX.

*  THESE STATIONS ARE NOT NWS OR FAA STATIONS AND ARE NOT UNDER
   NWS QUALITY CONTROL.

LAZ040-048-061>063-065-066-069-301800-
SOUTHEAST LOUISIANA

CITY           SKY/WX    TMP DP  RH WIND       PRES   REMARKS
N.O. AUDUBON     N/A     87  73  61 MISG        N/A
N.O. INTL ARPT MOSUNNY   85  72  65 NE8       29.90F
N.O. LAKEFRONT MOSUNNY   81  71  71 NE8       29.91S
N.O. DOWNTOWN* FAIR      82  70  65 E6        29.92R
SLIDELL        PTSUNNY   86  71  60 NE7       29.90F
BATON ROUGE    PTSUNNY   87  69  54 CALM      29.90F
BOOTHVILLE     SUNNY     84  75  74 NE7       29.90F
BELLE CHASSE   PTSUNNY   84  71  65 E7        29.90F
BOGALUSA*      FAIR      85  68  56 SE3       29.93F
GALLIANO*      NOT AVBL
NEW ROADS*     FAIR      85  71  61 SE3       29.91S
GONZALES*      PTSUNNY   85  73  66 NE3       29.90S
HAMMOND*       NOT AVBL
HOUMA*         MOSUNNY  N/A N/A N/A NE7       29.91
PORT FOURCHON* SUNNY     82  73  74 NE5       29.93S

$$

LAZ041-044-053-054-301800-
SOUTHWEST LOUISIANA

CITY           SKY/WX    TMP DP  RH WIND       PRES   REMARKS
LAKE CHARLES   MOSUNNY   84  71  65 SE7       29.89F
LAFAYETTE      MOSUNNY   85  71  63 NE7       29.90S
PATTERSON      MOSUNNY   86  73  66 SE6       29.93S
SALT POINT       N/A     86  73  65 SE6       29.89S
NEW IBERIA     MOSUNNY   87  72  60 NE6       29.90F
CHENAULT AIRPK NOT AVBL

$$

LAZ027-028-301800-
CENTRAL LOUISIANA

CITY           SKY/WX    TMP DP  RH WIND       PRES   REMARKS
FORT POLK      PTSUNNY   83  71  66 E7        29.90F
ALEXANDRIA INT MOSUNNY   88  69  53 SE8       29.89F
ALEXANDRIA     MOSUNNY   87  70  56 SE7       29.91F

$$

LAZ001-002-301800-
NORTHWEST LOUISIANA

CITY           SKY/WX    TMP DP  RH WIND       PRES   REMARKS
SHREVEPORT     PTSUNNY   87  67  51 S6        29.90F
BARKSDALE AFB  SUNNY     87  66  50 S9        29.90F
DTN SHREVEPORT SUNNY     85  66  53 E6        29.90F

$$

LAZ014-016-301800-
NORTHEAST LOUISIANA

CITY           SKY/WX    TMP DP  RH WIND       PRES   REMARKS
MONROE         CLOUDY    85  67  54 CALM      29.93F
TALLULAH       MOSUNNY   88  67  49 E7        29.92F

$$




USA.gov is the U.S. government's official web portal to all federal, state and local government web resources and services.